Terminal Aerodrome Forecast
Issued by NWS Billings, MT

Home | Current Version | Previous Version | Graphics & Text | Print | Product List | Glossary On
Versions: 1 2 3 4 5 6 7 8 9 10 11 12 13 14 15 16 17 18 19 20 21 22 23 24 25 26 27 28 29 30 31
000
FTUS45 KBYZ 042207 AAA
TAFMLS
TAF AMD
KMLS 042207Z 0422/0518 23015G22KT P6SM VCTS BKN090CB
      TEMPO 0422/0424 VRB20G35KT -TSRA
     FM050900 36015G26KT P6SM FEW030 SCT060 BKN100
     FM051400 01014G26KT P6SM -SHRA BKN020 OVC050=

USA.gov is the U.S. government's official web portal to all federal, state and local government web resources and services.